Location: Cahas Mountain Overlook
(37.0833°N, 80.1000°W)
Time: 08:11:59
(UTC-05:00)

S-56A Canister/Altair - Pass Details

Date: 30 November 2023
Orbit: 640 x 2488 km, 38.9° (Epoch: 25 February)

Event Time Altitude Azimuth Distance (km) Brightness Sun altitude
Rises 17:09:51 0° 284° (WNW) 3,177 11.6 -1.9°
Reaches altitude 10° 17:11:57 10° 283° (WNW) 2,377 10.9 -2.3°
Maximum altitude 17:17:28 83° 197° (SSW) 1,020 8.3 -3.3°
Drops below altitude 10° 17:25:44 10° 110° (ESE) 3,478 10.5 -4.8°
Sets 17:29:24 0° 110° (ESE) 4,763 11.1 -5.5°
